Regional Weather Roundup
Issued by NWS Newport/Morehead, NC

Current Version | Previous Version | Graphics & Text | Print | Product List | Glossary On
Versions: 1 2 3 4 5 6 7 8 9 10 11 12 13 14 15 16 17 18 19 20 21 22 23 24 25 26 27 28 29 30 31 32 33 34 35 36 37 38 39 40 41 42 43 44 45 46 47 48 49 50
000 ASUS42 KMHX 170710 RWRMHX WEATHER ROUNDUP FOR EASTERN NORTH CAROLINA NATIONAL WEATHER SERVICE NEWPORT/MOREHEAD CITY NC 300 AM EDT WED SEP 17 2014 NOTE: "FAIR" INDICATES FEW OR NO CLOUDS BELOW 12,000 FEET WITH NO SIGNIFICANT WEATHER AND/OR OBSTRUCTIONS TO VISIBILITY NCZ015>017-031-032-045>047-102-103-170800- NORTH COAST CITY SKY/WX TMP DP RH WIND PRES REMARKS EDENTON NOT AVBL ELIZABETH CITY CLOUDY 70 65 84 N3 29.97S KITTY HAWK PTSUNNY 72 64 75 E3 29.95F MANTEO PTCLDY 71 65 80 NE6 29.95F $$ NCZ045>047-081-094-103-104-170800- CENTRAL COAST CITY SKY/WX TMP DP RH WIND PRES REMARKS FRISCO MOCLDY 69 66 90 E6 29.94S SWANQUARTER N/A 70 N/A N/A NE3 29.91S $$ NCZ095-097-098-100-101-170800- SOUTHERN COAST CITY SKY/WX TMP DP RH WIND PRES REMARKS BEAUFORT HVY RAIN 73 70 90 SW6 29.94S FOG CEDAR ISLAND N/A 75 N/A N/A N9 29.97S JACKSONVILLE CLOUDY 70 67 90 S6 29.91F NEWPORT NOT AVBL PINEY ISLAND PTSUNNY 76 71 85 NE5 29.93S WILMINGTON LGT RAIN 68 66 93 W8 29.92F $$ NCZ011>013-027>030-043-044-078>080-089-090>093-098-170800- COASTAL PLAIN CITY SKY/WX TMP DP RH WIND PRES REMARKS AHOSKIE CLOUDY 66 64 91 N5 29.98F CLINTON RAIN 66 66 100 NW5 29.99F ELIZABETHTOWN RAIN 66 66 100 CALM 29.97F GOLDSBORO CLOUDY 70 69 98 W5 29.94S GREENVILLE CLOUDY 70 66 88 E6 29.96S HAVELOCK MOCLDY 73 70 90 CALM 29.95R KENANSVILLE CLOUDY 67 65 93 W3 29.95F KINSTON LGT RAIN 70 69 96 NW3 29.94S NEW BERN CLOUDY 74 70 87 CALM 29.94F RICHLANDS CLOUDY 68 64 88 NW6 29.93R ROANOKE RAPIDS NOT AVBL ROCKY MOUNT CLOUDY 70 66 87 N8 29.96S WASHINGTON CLOUDY 69 65 87 E7 29.93F WHITEVILLE DRIZZLE 67 64 89 CALM 29.93F $$ AMZ130-135-150-152-154-156-158-170-250-252-270-ANZ085-086-088-633-658-670-170800- MARINE OBSERVATIONS STATION/POSITION TIME TEMP WIND PRES WAVE SWELL AIR SEA DIR/SP/G HT/PER HT/PER (UTC) (F) (DEG/KT/KT) (MB) (FT/S) (FT/S) CHESAPEAKE LIGHT 0600 72 70/ 12/ 13 1015.7 BUOY 44014 0700 74 77 70/ 8/ 10 1014.5 2/14 2/14 DUCK 0700 74 77 60/ 10/ 11 1013.9 2E DUCK 0700 N/A 2/15 2/15 OREGON INLET 0700 74 76 40/ 9/ 12 1014.0 BUOY 44095 0700 77 N/A 3/12 2/12 20E OREGON INLET NOT AVBL HATTERAS CG 0700 73 80 60/ 5/ 8 1014.1 DIAMOND BUOY 0700 76 20/ 8/ 12 1013.5 3/13 2/13 CAPE LOOKOUT 0600 72 350/ 13/ 16 1013.5 BEAUFORT LAB 0700 73 80 80/ 4/ 7 1013.1 30 SE NEW RIVER 0700 80 81 270/ 12/ 14 1013.3 2/13 2/13 5 SE WRIGHTSVILL 0600 71 81 330/ 21/ 25 N/A BUOY 41002 0551 79 82 210/ 8/ 10 1013.3 5/14 5/14 BUOY 41004 0700 79 83 200/ 6/ 6 1012.4 2/13 2/13 $$

USA.gov is the U.S. government's official web portal to all federal, state and local government web resources and services.